ATLAS 5 CENTAUR DEB, 46865

Orbit data source: Space-Track

ATLAS 5 CENTAUR DEB, 46865 is space debris in HEO originally from a launch on Wed, 17 Oct 2018 UTC launched from the Air Force Eastern Test Range (AFETR). Debris objects in space refer to the collection of defunct objects orbiting the Earth. Examples of debris include non-operational satellites, rocket bodies, and fragments generated from explosions, collisions, or faulty payload assembly.

Loading next visibility...
Identifier
46865, 2018-079DW
Orbit
HEO
Country
Flag of USUS
Related business
Flag of USUnited Launch Alliance/Lockheed Martin (US)
Manufacturer
ULA Decatur
Mission
Spacecraft
Bus & Motor
Unknown
Mass
Unknown
Launch date (UTC)
2018-10-17 (7 years ago)
Launch vehicle
Unknown
Launch site
Air Force Eastern Test Range (AFETR)
Object type
Payload
Rocket body
Debris
Shape & HBR
Unknown shape, 1.1 m
Radar Cross Section
RCS unknown

Expand to show TLE details & history
Last TLE update: 5 days ago

TLE from 5 days ago
0 ATLAS 5 CENTAUR DEB
1 46865U 18079DW  25292.71185331 -.00000103  00000-0  00000-0 0  9998
2 46865  12.8450  51.9513 4513256 290.3652  27.7305  1.88836546 34233
Epoch: 2025-10-19T17:05Z
TLE epoch observation values (Epoch: 2025-10-19T17:05:04.125Z)
Latitude
-0°
Longitude
127.2327°
Altitude
12,625.46 km
Speed
5.247 km/s
True Right ascension
03h 27m 41s
True Declination
0° 00' 00"
Sunlit
Object was in daylight at epoch
Visualization orbit readout
Latitude
Unknown
Longitude
Unknown
Altitude
Unknown
Speed
Unknown
Apparent Right ascension
Unknown
Apparent Declination
Unknown
Sunlit
N/A
Visualization observer readout
Local Sidereal Time
08:02:49
Azimuth
Unknown
Elevation
Unknown
Doppler factor
Unknown
Orbital elements
Apogee altitude
33,752.452 km
Perigee altitude
8,793.253 km
Semi-major axis
27,650.989 km
Eccentricity
0.45133
Inclination
12.845°
RAAN
51.9513°
Arg. of periapsis
290.3652°
True anomaly
69.86552°
Mean anomaly
27.7305°
Eccentric anomaly
46.48258°
Mean motion
0.47204 °/min
Orbital period
762.65 mins
BSTAR
0
Loading maneuver chart data...
Computing Atmospheric mass density...

Documentation

Showing up to 5 results
|